Weather History for Tampa Knight Airport, FL

Change the Weather History Date:

Tuesday, March 12, 2013

  Actual Average (KTPA) Record (KTPA)
Temperature  
Mean Temperature 62 °F 67 °F  
Max Temperature 68 °F 76 °F 87 °F (1977)
Min Temperature 55 °F 58 °F 38 °F (1969)
Degree Days  
Heating Degree Days 4 2  
Month to date heating degree days 30  
Since 1 July heating degree days 501  
Cooling Degree Days 0 4  
Month to date cooling degree days 42  
Year to date cooling degree days 155  
Growing Degree Days 12 (Base 50)    
Moisture  
Dew Point 57 °F    
Average Humidity 83    
Maximum Humidity 100    
Minimum Humidity 67    
Precipitation  
Precipitation 0.28 in 0.09 in 2.37 in (1959)
Month to date precipitation 1.15  
Year to date precipitation 6.19  
Sea Level Pressure  
Sea Level Pressure 29.96 in    
Wind  
Wind Speed 8 mph (WSW)    
Max Wind Speed 15 mph    
Max Gust Speed 16 mph    
Visibility 9 miles    
Events Rain    
T = Trace of Precipitation, MM = Missing Value Source: NWS Daily Summary

Daily Weather History Graph

Daily Weather History Graph

Search for Another Location

Airport:

Trip Planner

Search our weather history database for the weather conditions in past years. The results will help you decide how hot, cold, wet, or windy it might be!

Date:

Astronomy

Mar. 12, 2013 Rise Set
Actual Time 7:42 AM EDT 7:36 PM EDT
Civil Twilight 7:19 AM EDT 8:00 PM EDT
Nautical Twilight 6:51 AM EDT 8:27 PM EDT
Astronomical Twilight 6:24 AM EDT 8:54 PM EDT
Moon 7:56 AM EDT (3/12) 8:39 PM EDT (3/12)
Length of Visible Light 12h 41m
Length of Day
11h 54m
New Moon, 1% of the Moon is Illuminated
Mar 12
New Moon
Mar 19
First Quarter
Mar 27
Full
Apr 3
Last Quarter
Apr 10
New

Hourly Weather History & Observations

Time (EDT) Temp. Dew Point Humidity Pressure Visibility Wind Dir Wind Speed Gust Speed Precip Events Conditions
12:15 AM 68.0 °F 59.0 °F 73% 29.93 in 10.0 mi South 8.1 mph - N/A   Clear
12:35 AM 66.2 °F 59.0 °F 78% 29.95 in 10.0 mi SSW 5.8 mph - N/A   Clear
12:55 AM 66.2 °F 59.0 °F 78% 29.94 in 10.0 mi South 6.9 mph - N/A   Clear
1:15 AM 64.4 °F 59.0 °F 83% 29.94 in 10.0 mi South 5.8 mph - N/A   Clear
1:35 AM 64.4 °F 60.8 °F 88% 29.93 in 10.0 mi South 5.8 mph - N/A   Clear
1:55 AM 64.4 °F 60.8 °F 88% 29.94 in 10.0 mi South 9.2 mph - N/A   Clear
2:15 AM 64.4 °F 60.8 °F 88% 29.93 in 10.0 mi South 8.1 mph - N/A   Clear
2:35 AM 66.2 °F 60.8 °F 83% 29.93 in 10.0 mi South 8.1 mph - N/A   Clear
2:55 AM 66.2 °F 60.8 °F 83% 29.92 in 10.0 mi SSE 11.5 mph - N/A   Clear
3:15 AM 66.2 °F 60.8 °F 83% 29.91 in 10.0 mi SSE 11.5 mph - N/A   Clear
3:35 AM 66.2 °F 60.8 °F 83% 29.90 in 10.0 mi SSE 13.8 mph - N/A   Clear
3:55 AM 66.2 °F 60.8 °F 83% 29.89 in 10.0 mi SSE 11.5 mph - N/A   Clear
4:15 AM 66.2 °F 60.8 °F 83% 29.90 in 10.0 mi SSE 9.2 mph 16.1 mph N/A   Scattered Clouds
4:35 AM 66.2 °F 60.8 °F 83% 29.89 in 10.0 mi South 11.5 mph - N/A   Mostly Cloudy
4:55 AM 66.2 °F 60.8 °F 83% 29.88 in 10.0 mi South 11.5 mph 16.1 mph N/A   Overcast
5:15 AM 66.2 °F 60.8 °F 83% 29.88 in 10.0 mi South 11.5 mph - N/A   Overcast
5:35 AM 66.2 °F 60.8 °F 83% 29.89 in 10.0 mi South 11.5 mph - N/A Rain Rain
5:55 AM 64.4 °F 60.8 °F 88% 29.90 in 7.0 mi South 8.1 mph - 0.01 in Rain Rain
6:15 AM 64.4 °F 60.8 °F 88% 29.89 in 10.0 mi South 10.4 mph - 0.01 in   Light Drizzle
6:35 AM 64.4 °F 60.8 °F 88% 29.89 in 10.0 mi South 8.1 mph - 0.01 in   Light Drizzle
6:55 AM 64.4 °F 60.8 °F 88% 29.89 in 10.0 mi SSE 6.9 mph - 0.01 in   Overcast
7:15 AM 64.4 °F 60.8 °F 88% 29.90 in 10.0 mi SSE 5.8 mph - N/A   Overcast
7:35 AM 64.4 °F 60.8 °F 88% 29.91 in 7.0 mi Calm Calm - N/A   Drizzle
7:55 AM 64.4 °F 62.6 °F 94% 29.92 in 5.0 mi South 5.8 mph - 0.04 in Rain Rain
8:15 AM 64.4 °F 62.6 °F 94% 29.92 in 5.0 mi South 9.2 mph - 0.05 in Rain Rain
8:35 AM 64.4 °F 62.6 °F 94% 29.92 in 5.0 mi SSE 8.1 mph - 0.09 in Rain Light Rain
8:55 AM 64.4 °F 62.6 °F 94% 29.93 in 4.0 mi South 9.2 mph - 0.15 in   Drizzle
9:15 AM 64.4 °F 62.6 °F 94% 29.93 in 4.0 mi South 8.1 mph - 0.05 in Rain Rain
9:35 AM 64.4 °F 64.4 °F 100% 29.94 in 7.0 mi South 11.5 mph - 0.06 in Rain Light Rain
9:55 AM 64.4 °F 62.6 °F 94% 29.93 in 10.0 mi South 8.1 mph - 0.07 in   Light Drizzle
10:15 AM 66.2 °F 64.4 °F 94% 29.94 in 10.0 mi South 12.7 mph - N/A   Overcast
10:35 AM 68.0 °F 64.4 °F 88% 29.94 in 10.0 mi South 13.8 mph - N/A   Overcast
10:55 AM 68.0 °F 64.4 °F 88% 29.95 in 10.0 mi SSW 15.0 mph - N/A   Overcast
11:15 AM 62.6 °F 60.8 °F 94% 29.97 in 10.0 mi WNW 8.1 mph - N/A   Light Drizzle
11:35 AM 62.6 °F 60.8 °F 94% 29.97 in 5.0 mi NW 9.2 mph - N/A   Light Drizzle
11:55 AM 62.6 °F 60.8 °F 94% 29.98 in 4.0 mi NW 8.1 mph - N/A   Overcast
12:15 PM 62.6 °F 59.0 °F 88% 29.98 in 5.0 mi NNW 6.9 mph - N/A   Overcast
12:35 PM 62.6 °F 59.0 °F 88% 29.99 in 10.0 mi NW 8.1 mph - N/A   Overcast
12:55 PM 62.6 °F 59.0 °F 88% 29.99 in 10.0 mi NW 5.8 mph - N/A   Overcast
1:15 PM 62.6 °F 59.0 °F 88% 29.98 in 10.0 mi NW 5.8 mph - N/A   Overcast
1:35 PM 62.6 °F 59.0 °F 88% 29.98 in 10.0 mi NW 5.8 mph - N/A   Overcast
1:55 PM 62.6 °F 59.0 °F 88% 29.97 in 10.0 mi NW 3.5 mph - N/A   Overcast
2:15 PM 64.4 °F 59.0 °F 83% 29.97 in 10.0 mi WNW 5.8 mph - N/A   Overcast
2:35 PM 62.6 °F 59.0 °F 88% 29.96 in 10.0 mi NW 6.9 mph - N/A   Overcast
2:55 PM 62.6 °F 57.2 °F 82% 29.96 in 10.0 mi WNW 6.9 mph - N/A   Overcast
3:15 PM 64.4 °F 57.2 °F 77% 29.96 in 10.0 mi West 8.1 mph - N/A   Overcast
3:35 PM 64.4 °F 55.4 °F 73% 29.97 in 10.0 mi WNW 5.8 mph - N/A   Overcast
3:55 PM 62.6 °F 55.4 °F 77% 29.96 in 10.0 mi WNW 8.1 mph - N/A   Overcast
4:15 PM 64.4 °F 55.4 °F 73% 29.97 in 10.0 mi West 6.9 mph - N/A   Mostly Cloudy
4:35 PM 64.4 °F 53.6 °F 68% 29.96 in 10.0 mi West 5.8 mph - N/A   Scattered Clouds
4:55 PM 64.4 °F 53.6 °F 68% 29.96 in 10.0 mi WNW 6.9 mph - N/A   Clear
5:15 PM 62.6 °F 51.8 °F 68% 29.96 in 10.0 mi WNW 9.2 mph - N/A   Clear
5:35 PM 62.6 °F 51.8 °F 68% 29.97 in 10.0 mi WNW 8.1 mph - N/A   Clear
5:55 PM 62.6 °F 51.8 °F 68% 29.98 in 10.0 mi West 9.2 mph - N/A   Clear
6:15 PM 60.8 °F 51.8 °F 72% 29.98 in 10.0 mi WNW 9.2 mph - N/A   Clear
6:35 PM 60.8 °F 51.8 °F 72% 29.97 in 10.0 mi WNW 4.6 mph - N/A   Clear
6:55 PM 60.8 °F 50.0 °F 68% 29.98 in 10.0 mi WNW 8.1 mph - N/A   Clear
7:15 PM 59.0 °F 48.2 °F 67% 29.99 in 10.0 mi NW 4.6 mph - N/A   Clear
7:35 PM 59.0 °F 50.0 °F 72% 29.99 in 10.0 mi NW 5.8 mph - N/A   Clear
7:55 PM 59.0 °F 50.0 °F 72% 30.00 in 10.0 mi NW 5.8 mph - N/A   Clear
8:15 PM 57.2 °F 50.0 °F 77% 30.01 in 10.0 mi North 3.5 mph - N/A   Clear
8:35 PM 57.2 °F 50.0 °F 77% 30.02 in 10.0 mi NNW 4.6 mph - N/A   Clear
8:55 PM 57.2 °F 50.0 °F 77% 30.02 in 10.0 mi NNW 5.8 mph - N/A   Clear
9:15 PM 57.2 °F 50.0 °F 77% 30.03 in 10.0 mi NNW 4.6 mph - N/A   Clear
9:35 PM 57.2 °F 50.0 °F 77% 30.04 in 10.0 mi NNW 5.8 mph - N/A   Clear
9:55 PM 57.2 °F 50.0 °F 77% 30.04 in 10.0 mi NNW 5.8 mph - N/A   Clear
10:15 PM 55.4 °F 50.0 °F 82% 30.05 in 10.0 mi Calm Calm - N/A   Clear
10:35 PM 55.4 °F 50.0 °F 82% 30.06 in 10.0 mi NNW 3.5 mph - N/A   Clear
10:55 PM 55.4 °F 50.0 °F 82% 30.06 in 10.0 mi NNW 3.5 mph - N/A   Clear
11:15 PM 55.4 °F 50.0 °F 82% 30.07 in 10.0 mi Calm Calm - N/A   Clear
11:35 PM 55.4 °F 50.0 °F 82% 30.07 in 10.0 mi NW 3.5 mph - N/A   Clear
11:55 PM 55.4 °F 50.0 °F 82% 30.07 in 10.0 mi Calm Calm - N/A   Clear